Wellsville, NY

4:01 PM EDT on June 26, 2017 (GMT -0400)
Wellsville Municipal-Tarantine

Weather History for KELZ - March, 2012

Change the Weather History Date:

Tuesday, March 13, 2012

  Actual Average (KDSV) Record (KDSV)
Temperature  
Mean Temperature 58 °F -  
Max Temperature 66 °F 41 °F 76 °F (1990)
Min Temperature 50 °F 23 °F 3 °F (1960)
Degree Days  
Heating Degree Days 8    
Growing Degree Days 8 (Base 50)    
Moisture  
Dew Point 45 °F    
Average Humidity 66    
Maximum Humidity 88    
Minimum Humidity 35    
Precipitation  
Precipitation 0.03 in - - ()
Sea Level Pressure  
Sea Level Pressure 29.97 in    
Wind  
Wind Speed 15 mph (WSW)    
Max Wind Speed 20 mph    
Max Gust Speed 30 mph    
Visibility 10 miles    
Events Rain    
Averages and records for this station are not official NWS values.
T = Trace of Precipitation, MM = Missing Value Source: NWS Daily Summary

Daily Weather History Graph

Daily Weather History Graph

Search for Another Location

Airport or City:

Trip Planner

Search our weather history database for the weather conditions in past years. The results will help you decide how hot, cold, wet, or windy it might be!

Date:

Astronomy

Mar. 13, 2012 Rise Set
Actual Time 7:26 AM EDT 7:16 PM EDT
Civil Twilight 6:58 AM EDT 7:44 PM EDT
Nautical Twilight 6:26 AM EDT 8:17 PM EDT
Astronomical Twilight 5:53 AM EDT 8:50 PM EDT
Moon 12:53 AM EDT (3/13) 10:30 AM EDT (3/13)
Length of Visible Light 12h 46m
Length of Day
11h 50m
Waning Gibbous, 66% of the Moon is Illuminated
Mar 13
Waning Gibbous
Mar 14
Last Quarter
Mar 22
New
Mar 30
First Quarter
Apr 6
Full

Hourly Weather History & Observations

Time (EDT) Temp. Dew Point Humidity Pressure Visibility Wind Dir Wind Speed Gust Speed Precip Events Conditions
12:56 AM 54.0 °F 50.0 °F 86% 29.98 in 10.0 mi SSW 12.7 mph 20.7 mph N/A   Overcast
1:34 AM 53.6 °F 50.0 °F 88% 29.97 in 10.0 mi SW 18.4 mph 29.9 mph N/A   Overcast
1:56 AM 55.0 °F 50.0 °F 83% 29.96 in 10.0 mi SW 19.6 mph 28.8 mph N/A   Overcast
2:06 AM 55.4 °F 50.0 °F 82% 29.97 in 10.0 mi SW 17.3 mph 27.6 mph N/A   Overcast
2:13 AM 55.4 °F 50.0 °F 82% 29.97 in 10.0 mi SW 17.3 mph 26.5 mph N/A   Overcast
2:56 AM 55.9 °F 50.0 °F 80% 29.95 in 10.0 mi SW 15.0 mph 26.5 mph N/A   Overcast
3:21 AM 55.4 °F 50.0 °F 82% 29.96 in 10.0 mi WSW 12.7 mph 26.5 mph N/A   Overcast
3:56 AM 55.9 °F 50.0 °F 80% 29.94 in 10.0 mi SW 16.1 mph 21.9 mph N/A   Overcast
4:56 AM 57.0 °F 50.0 °F 77% 29.94 in 10.0 mi SW 19.6 mph 24.2 mph N/A   Overcast
5:56 AM 57.0 °F 50.0 °F 77% 29.94 in 10.0 mi WSW 13.8 mph 21.9 mph N/A   Overcast
6:07 AM 57.2 °F 50.0 °F 77% 29.94 in 10.0 mi WSW 15.0 mph 24.2 mph N/A   Overcast
6:22 AM 57.2 °F 50.0 °F 77% 29.93 in 10.0 mi SW 18.4 mph 27.6 mph N/A   Overcast
6:56 AM 57.0 °F 51.1 °F 81% 29.93 in 10.0 mi SW 12.7 mph 21.9 mph N/A   Overcast
7:56 AM 57.0 °F 51.1 °F 81% 29.94 in 6.0 mi WSW 13.8 mph - 0.02 in Rain Light Rain
8:56 AM 55.9 °F 51.1 °F 84% 29.96 in 10.0 mi WSW 9.2 mph 19.6 mph 0.01 in Rain Light Rain
9:28 AM 57.2 °F 51.8 °F 82% 29.95 in 10.0 mi WSW 10.4 mph 23.0 mph 0.00 in   Overcast
10:56 AM 61.0 °F 48.9 °F 64% 29.96 in 10.0 mi WSW 11.5 mph 24.2 mph N/A   Mostly Cloudy
11:56 AM 62.1 °F 46.9 °F 58% 29.96 in 10.0 mi West 16.1 mph 23.0 mph N/A   Scattered Clouds
12:56 PM 62.1 °F 44.1 °F 52% 29.97 in 10.0 mi West 11.5 mph 26.5 mph N/A   Partly Cloudy
1:56 PM 63.0 °F 42.1 °F 46% 29.96 in 10.0 mi West 15.0 mph 20.7 mph N/A   Clear
2:56 PM 64.9 °F 41.0 °F 42% 29.94 in 10.0 mi WSW 16.1 mph 21.9 mph N/A   Partly Cloudy
4:35 PM 64.4 °F 39.2 °F 40% 29.95 in 10.0 mi West 13.8 mph 23.0 mph N/A   Scattered Clouds
4:56 PM 64.0 °F 39.0 °F 40% 29.94 in 10.0 mi West 11.5 mph 20.7 mph N/A   Mostly Cloudy
5:56 PM 64.0 °F 36.0 °F 35% 29.95 in 10.0 mi West 15.0 mph 26.5 mph N/A   Partly Cloudy
6:56 PM 61.0 °F 35.1 °F 38% 29.97 in 10.0 mi West 11.5 mph 20.7 mph N/A   Clear
7:56 PM 57.0 °F 34.0 °F 42% 30.00 in 10.0 mi WNW 12.7 mph - N/A   Clear
8:56 PM 54.0 °F 37.9 °F 55% 30.03 in 10.0 mi West 10.4 mph 20.7 mph N/A   Clear
9:56 PM 53.1 °F 37.0 °F 55% 30.04 in 10.0 mi West 9.2 mph - N/A   Clear
10:56 PM 51.1 °F 37.9 °F 61% 30.05 in 10.0 mi West 13.8 mph 19.6 mph N/A   Clear
11:56 PM 50.0 °F 36.0 °F 59% 30.06 in 10.0 mi WNW 10.4 mph - N/A   Clear